Location: Gleizolles
(44.4833°N, 6.7667°E)
Time: 21:24:30
(UTC+00:00)

Explorer 7 - Pass Details

Date: 23 June 2024
Orbit: 465 x 619 km, 50.3° (Epoch: 19 July)

Event Time Altitude Azimuth Distance (km) Brightness Sun altitude
Rises 13:26:09 0° 290° (WNW) 2,601 10.5 59.1°
Reaches altitude 10° 13:28:31 10° 300° (WNW) 1,691 9.7 58.8°
Maximum altitude 13:32:02 35° 7° (N) 802 7.9 58.2°
Drops below altitude 10° 13:35:26 10° 75° (ENE) 1,635 9.0 57.7°
Sets 13:37:42 0° 84° (E) 2,500 9.9 57.4°
